Location: Caltech
(34.1382°N, 118.1253°W)
Time: 14:55:07
(UTC-07:00)

Gbstr 26 Del rocket - Visible Passes

Search period start: 30 September 2014 00:00
Search period end: 10 October 2014 00:00
Orbit: 493 x 1278 km, 51.8° (Epoch: 30 September)

Date Brightness Start Highest point End Pass type
(mag) Time Alt. Az. Time Alt. Az. Time Alt. Az.
30 Sep 6.2 03:29:10 19° SE 03:29:10 19° SE 03:31:01 10° SE visible
30 Sep 5.3 05:11:58 24° SW 05:11:58 24° SW 05:16:45 10° S visible
30 Sep 3.5 20:03:43 10° WSW 20:07:22 50° NW 20:09:53 21° NNE visible
01 Oct 6.6 03:28:25 11° SE 03:28:25 11° SE 03:28:37 10° SE visible
01 Oct 5.9 05:11:13 15° SSW 05:11:13 15° SSW 05:13:14 10° SSW visible
01 Oct 4.1 20:01:34 10° WSW 20:05:04 36° NW 20:08:06 15° NNE visible
02 Oct 4.6 19:59:32 10° W 20:02:48 27° NNW 20:06:09 11° NNE visible
03 Oct 5.0 19:57:37 10° W 20:00:33 21° NNW 20:03:43 10° NNE visible
04 Oct 5.3 19:55:49 10° WNW 19:58:20 17° NNW 20:01:00 10° NNE visible
05 Oct 5.5 19:54:11 10° NW 19:56:08 13° NNW 19:58:11 10° N visible
06 Oct 5.5 19:52:50 10° NW 19:53:58 11° NNW 19:55:07 10° N visible
